Wind_Speed
96 93 90 92 91 90 86 79 76 72 66 64 61 64 67 69 63 61 60 61 59 61 59 58 58 57 58 58 56 55 55 57 57 57 57 57 57 57 58 58 57 55 55 57
100 91 95 98 94 93 89 86 81 80 77 67 64 62 68 71 68 66 65 64 64 63 61 60 61 63 64 64 62 61 61 61 61 62 63 63 63 63 63 63 62 60 61 61
104 104 104 100 97 93 90 87 88 88 83 78 68 61 65 72 69 70 69 69 70 69 67 65 66 69 70 70 68 66 67 66 66 67 68 69 68 68 69 69 70 68 65 65
102 103 107 105 99 96 92 93 93 91 89 83 78 65 65 72 74 71 73 75 76 75 71 69 71 74 75 75 74 71 71 70 71 72 73 74 73 73 74 76 77 76 73 69
98 103 100 103 104 103 100 98 97 97 93 90 83 80 62 73 73 78 77 75 78 80 77 77 80 79 78 78 76 75 74 74 73 74 75 75 76 77 80 77 77 79 77 75
102 99 99 98 102 108 106 104 103 101 100 92 86 88 74 69 78 79 82 80 80 81 82 81 83 85 83 82 82 81 79 76 76 76 76 77 77 78 79 80 83 82 81 81
109 106 102 101 102 103 100 101 105 104 101 93 91 90 82 76 75 79 81 85 84 85 86 86 85 86 86 86 86 85 84 82 81 80 80 80 80 81 82 84 86 86 86 86
111 110 105 104 107 107 106 107 106 105 101 98 98 89 79 87 80 82 84 85 85 88 88 88 87 86 85 85 85 83 83 83 83 82 82 83 84 85 87 88 88 90 90 90
115 115 113 112 110 109 110 107 105 106 103 103 98 91 84 83 90 91 85 90 92 91 91 91 89 86 85 86 86 86 85 84 83 84 85 86 88 90 90 91 94 95 94 94
118 117 116 119 117 115 110 110 108 107 103 103 97 95 90 87 88 91 92 88 90 93 95 97 96 93 91 90 91 91 90 90 92 93 93 94 96 97 99 99 99 99 100 102
126 123 120 119 116 116 114 114 113 114 109 103 100 96 95 94 96 96 96 96 97 95 97 100 99 98 97 96 98 99 99 99 99 100 102 103 104 104 104 105 106 108 109 110
128 129 127 121 120 119 119 117 117 115 110 109 105 92 94 94 99 102 103 105 105 104 103 104 103 103 104 104 104 104 105 106 106 106 108 108 109 111 112 113 114 114 115 117
133 131 128 128 124 119 118 119 118 119 120 115 113 93 101 102 102 104 108 108 110 109 109 107 105 105 108 109 110 111 113 113 114 114 114 115 116 117 119 120 121 121 122 123
139 136 132 125 122 130 126 123 122 124 124 115 115 104 103 108 110 109 110 112 113 114 115 113 112 111 112 112 114 114 115 117 117 117 118 119 121 122 123 124 124 124 125 128
140 141 135 131 133 131 129 130 130 128 118 124 111 113 109 111 113 117 119 117 119 118 118 119 119 118 118 119 120 120 121 123 123 123 124 125 126 127 129 129 130 132 133 134
120 122 136 140 137 135 133 133 131 129 126 126 117 117 114 117 120 120 122 125 125 122 122 122 121 121 122 124 125 126 128 130 129 129 129 129 131 132 133 134 134 135 135 135
119 116 116 123 136 138 144 133 131 133 134 131 130 119 121 120 123 125 129 130 129 132 132 131 128 127 127 129 130 130 132 134 135 135 135 136 137 138 138 138 138 139 138 137
120 118 119 115 119 134 139 137 136 134 132 135 134 129 124 125 128 132 132 130 133 135 136 134 133 134 133 134 135 137 137 139 139 139 140 141 142 143 143 142 143 143 143 142
120 123 121 121 119 120 119 115 123 135 134 138 141 129 127 133 141 138 135 137 137 137 137 138 139 139 140 141 141 141 142 142 144 145 145 144 143 143 144 145 145 146 148 150
128 128 127 124 124 130 120 110 110 115 124 121 128 129 127 130 140 134 138 141 139 139 142 144 145 146 145 145 146 148 149 149 149 149 149 149 149 150 152 152 149 147 147 150
130 132 130 127 137 135 119 115 116 123 115 116 125 127 126 125 126 125 122 126 128 128 131 135 139 140 140 140 141 144 147 148 148 149 150 148 148 148 149 151 156 149 145 148
117 125 131 134 138 136 123 120 123 127 132 132 127 126 128 124 121 119 119 121 124 126 128 131 133 134 136 138 137 137 138 140 143 143 143 144 145 147 148 149 151 152 150 150
109 109 112 118 122 127 127 128 134 136 138 133 133 132 132 132 128 127 127 128 129 130 131 133 135 138 139 140 140 141 141 141 142 144 144 144 145 147 147 148 150 151 152 153
97 105 113 111 105 108 112 116 124 131 138 140 138 136 137 139 139 138 137 138 137 138 138 142 145 148 145 145 146 146 147 146 147 149 151 152 153 153 154 156 157 158 159 160
74 85 95 103 103 111 116 117 118 120 121 121 123 125 128 131 135 139 141 143 145 146 149 153 153 154 151 151 153 153 154 155 156 157 158 160 160 160 158 155 153 150 149 149
64 68 76 79 87 102 109 116 120 121 120 122 123 124 124 125 127 129 130 135 139 141 141 141 139 139 138 140 143 144 144 144 145 145 145 144 144 144 145 143 144 141 138 138
Wind_Direction
232 233 233 233 233 233 234 236 236 237 242 246 248 247 242 244 244 241 242 245 248 246 245 247 247 249 252 254 252 250 251 251 253 256 258 261 264 266 269 273 275 275 274 269
232 234 235 235 236 237 237 237 239 239 239 240 246 248 247 245 246 245 244 247 248 249 247 249 251 252 252 253 254 254 254 254 255 256 257 259 262 265 268 271 275 275 274 273
232 232 234 237 237 238 239 239 240 240 240 237 239 244 250 249 250 249 248 247 249 249 249 249 250 253 254 254 254 255 256 256 257 259 260 262 264 266 269 271 275 275 276 274
233 234 234 236 239 240 241 240 242 240 240 240 236 235 248 251 252 251 250 249 250 251 251 251 253 254 256 257 258 259 260 261 261 262 263 265 268 271 274 275 276 275 277 276
233 232 235 235 237 239 241 241 243 242 241 240 240 235 240 253 255 252 251 252 253 254 254 253 253 255 257 259 262 264 265 267 268 269 270 272 274 275 277 278 277 276 277 276
231 235 237 238 239 239 239 242 242 242 242 242 242 242 229 248 253 255 253 254 255 255 256 256 257 259 260 261 262 264 267 268 269 270 272 274 275 275 274 275 275 276 276 276
231 231 235 239 240 240 241 243 243 241 242 241 241 243 240 235 247 254 257 257 257 258 259 259 261 262 263 264 265 266 267 268 269 270 271 272 274 275 276 276 277 278 278 279
235 234 235 238 241 242 241 242 243 243 244 242 242 244 242 247 241 247 252 256 258 259 260 262 264 264 264 264 265 266 267 267 269 271 273 273 273 274 275 276 279 280 280 281
234 234 234 235 237 242 245 245 245 246 246 244 242 242 245 246 248 244 245 253 256 258 260 262 262 263 265 266 266 267 267 268 269 271 272 273 275 276 277 277 277 278 279 280
236 236 235 236 238 241 245 248 249 249 249 249 244 242 243 244 245 249 249 246 253 257 258 259 261 264 264 265 266 267 268 269 271 273 273 274 274 274 274 275 276 277 278 279
235 236 236 237 238 240 242 243 246 248 249 250 248 246 247 248 248 248 250 253 252 250 255 258 260 262 264 265 266 267 267 268 268 269 270 271 273 276 277 276 277 277 278 279
235 236 237 238 239 240 241 243 245 248 250 251 251 246 248 248 250 252 252 252 254 256 256 255 255 257 260 263 265 267 268 269 271 272 274 275 276 277 277 277 278 279 280 281
236 237 238 239 241 243 244 245 246 246 247 248 249 248 251 251 252 253 254 255 254 256 259 261 262 264 264 264 265 267 269 271 271 272 274 275 276 277 278 279 279 280 281 283
236 237 239 240 241 241 243 244 246 247 247 248 250 249 249 253 253 254 255 256 257 257 258 259 261 263 266 267 268 269 270 271 273 274 275 276 276 277 278 279 281 282 282 282
238 238 239 240 241 243 243 245 246 247 249 250 249 249 250 251 252 253 255 256 258 258 260 261 261 263 265 267 268 270 271 272 273 274 275 276 277 278 278 279 280 281 283 284
241 241 242 240 241 242 243 245 248 250 250 251 251 251 253 253 253 255 255 256 257 259 259 259 261 262 264 266 268 269 271 272 273 275 276 276 276 277 278 280 280 281 283 285
244 246 246 242 242 243 243 244 247 249 250 253 252 252 254 255 255 256 256 257 258 259 260 261 263 264 265 266 266 268 269 271 272 272 273 275 276 277 279 280 281 281 283 284
243 244 246 246 246 245 245 245 248 249 250 253 254 253 253 255 257 256 257 259 260 261 262 264 264 265 265 266 267 268 269 271 272 273 274 274 276 277 279 280 280 282 283 284
241 243 246 248 249 250 247 248 250 250 249 251 253 255 255 256 255 257 259 259 260 262 263 264 266 266 267 268 268 269 270 271 272 273 274 275 276 277 278 280 280 281 281 283
241 242 243 246 249 250 251 251 251 253 252 253 256 253 253 253 256 257 259 261 263 263 264 265 266 266 266 267 268 269 269 270 271 272 273 274 275 275 276 279 281 281 282 282
244 245 244 245 247 250 250 252 254 255 259 255 255 255 256 257 258 258 258 259 261 263 265 266 267 268 268 269 270 270 271 272 272 274 276 276 276 277 277 279 282 282 281 282
245 246 246 246 249 251 252 252 254 255 253 254 257 261 262 262 262 262 261 261 262 263 265 265 266 267 267 267 268 269 270 271 272 273 274 275 276 278 280 280 280 282 282 283
245 249 251 251 251 251 253 253 254 254 256 257 259 261 262 262 263 264 264 264 264 264 264 265 266 267 267 269 270 271 271 272 273 274 275 276 276 278 278 279 280 281 282 283
245 246 249 250 252 254 255 255 255 256 257 256 257 258 261 264 266 267 266 265 266 266 266 266 266 266 267 268 270 272 273 274 275 276 277 277 278 278 278 278 279 281 282 282
247 246 248 250 250 253 254 254 255 256 258 259 260 261 261 262 262 263 265 265 265 265 264 264 265 266 268 269 270 272 273 274 275 276 276 277 277 278 278 280 280 281 280 280
243 244 246 247 247 249 250 254 256 258 260 261 262 263 265 265 264 265 267 266 264 265 267 269 269 270 270 270 270 271 272 273 273 273 274 275 276 277 277 278 278 279 278 279
Height
10654 10666 10685 10682 10680 10689 10699 10711 10721 10727 10728 10736 10746 10752 10754 10755 10765 10770 10772 10772 10775 10780 10785 10787 10787 10787 10785 10785 10789 10793 10793 10793 10794 10794 10794 10794 10795 10795 10793 10793 10793 10792 10791 10790
10638 10659 10657 10661 10670 10679 10689 10699 10707 10708 10712 10722 10731 10741 10745 10745 10751 10756 10761 10764 10765 10767 10774 10775 10774 10771 10771 10772 10775 10778 10779 10780 10781 10781 10781 10782 10783 10782 10782 10779 10778 10777 10777 10776
10622 10635 10637 10646 10655 10666 10675 10684 10687 10689 10698 10707 10716 10730 10734 10734 10741 10744 10749 10750 10750 10753 10759 10762 10759 10757 10755 10757 10760 10764 10764 10766 10767 10767 10767 10768 10769 10769 10767 10766 10763 10763 10762 10761
10606 10620 10625 10635 10645 10651 10659 10665 10666 10674 10681 10692 10700 10716 10723 10722 10728 10735 10735 10734 10732 10737 10745 10748 10743 10740 10740 10742 10744 10750 10750 10753 10754 10753 10753 10752 10752 10753 10751 10750 10747 10745 10745 10746
10595 10597 10606 10619 10629 10629 10643 10647 10651 10655 10664 10675 10689 10696 10717 10711 10717 10716 10718 10720 10720 10720 10727 10730 10725 10725 10726 10727 10731 10733 10735 10737 10738 10738 10737 10736 10735 10735 10733 10731 10728 10729 10730 10729
10576 10586 10595 10605 10606 10613 10621 10624 10629 10637 10645 10664 10677 10678 10706 10701 10697 10700 10701 10702 10703 10704 10706 10709 10709 10709 10713 10715 10715 10716 10719 10721 10720 10720 10719 10718 10717 10715 10714 10712 10710 10710 10710 10710
10561 10570 10575 10581 10587 10594 10605 10608 10610 10616 10627 10654 10655 10659 10698 10682 10682 10683 10685 10685 10688 10688 10687 10690 10692 10694 10697 10697 10698 10700 10700 10701 10702 10702 10701 10699 10698 10696 10695 10693 10691 10690 10691 10690
10547 10558 10568 10572 10572 10577 10576 10578 10587 10598 10615 10630 10637 10659 10675 10676 10667 10665 10665 10666 10669 10670 10671 10672 10674 10676 10677 10677 10679 10681 10683 10683 10683 10683 10681 10680 10679 10677 10675 10673 10672 10670 10669 10668
10520 10531 10540 10548 10551 10552 10562 10569 10574 10578 10593 10606 10624 10647 10655 10656 10654 10643 10648 10650 10649 10653 10654 10653 10653 10655 10658 10660 10661 10662 10662 10663 10663 10664 10662 10660 10658 10657 10656 10653 10650 10649 10647 10646
10502 10510 10519 10521 10532 10540 10552 10552 10559 10566 10577 10589 10610 10623 10635 10633 10632 10631 10633 10633 10632 10633 10632 10631 10631 10634 10638 10639 10639 10640 10641 10642 10643 10642 10641 10640 10638 10635 10632 10630 10629 10627 10625 10622
10469 10481 10493 10497 10517 10523 10526 10530 10535 10536 10552 10567 10587 10607 10613 10618 10615 10616 10613 10610 10612 10611 10610 10608 10608 10612 10616 10618 10618 10618 10618 10618 10619 10619 10618 10617 10616 10614 10612 10609 10606 10602 10600 10597
10447 10456 10467 10484 10489 10497 10505 10513 10514 10525 10543 10547 10559 10597 10595 10594 10593 10592 10593 10593 10591 10590 10590 10589 10590 10593 10594 10593 10592 10591 10592 10594 10596 10596 10594 10593 10591 10589 10586 10583 10580 10576 10573 10569
10427 10436 10446 10463 10477 10491 10495 10498 10501 10504 10506 10526 10532 10587 10568 10571 10571 10568 10567 10569 10569 10571 10569 10569 10573 10573 10570 10570 10570 10570 10571 10571 10570 10570 10570 10569 10565 10561 10559 10556 10553 10549 10545 10541
10398 10412 10429 10453 10469 10448 10461 10469 10473 10471 10480 10518 10524 10553 10557 10547 10543 10546 10543 10541 10544 10543 10546 10549 10549 10547 10548 10548 10547 10547 10546 10543 10546 10547 10544 10541 10537 10534 10531 10529 10525 10522 10517 10512
10380 10394 10412 10433 10426 10432 10444 10447 10445 10450 10483 10473 10517 10517 10526 10523 10519 10513 10514 10519 10516 10520 10521 10523 10526 10528 10529 10525 10522 10519 10519 10514 10516 10519 10516 10513 10509 10505 10501 10498 10495 10491 10487 10482
10362 10379 10384 10404 10408 10410 10414 10419 10431 10448 10456 10456 10486 10492 10491 10488 10490 10496 10494 10486 10486 10492 10494 10497 10502 10502 10504 10503 10500 10494 10489 10484 10487 10487 10485 10481 10474 10471 10469 10465 10462 10459 10456 10450
10348 10361 10361 10380 10380 10376 10369 10421 10420 10412 10422 10434 10443 10474 10458 10469 10463 10460 10455 10459 10466 10462 10463 10469 10476 10480 10478 10473 10469 10468 10461 10456 10456 10455 10453 10448 10443 10438 10435 10432 10429 10425 10421 10417
10331 10337 10332 10351 10346 10336 10375 10388 10390 10397 10405 10404 10414 10429 10443 10436 10428 10426 10429 10434 10431 10432 10434 10441 10446 10444 10445 10443 10440 10436 10432 10427 10424 10422 10418 10414 10410 10408 10404 10399 10395 10391 10387 10382
10315 10308 10315 10320 10327 10325 10338 10369 10375 10366 10379 10362 10372 10410 10413 10398 10387 10406 10411 10403 10405 10408 10411 10410 10408 10411 10411 10409 10406 10402 10399 10394 10391 10388 10384 10381 10378 10375 10372 10367 10362 10357 10352 10345
10285 10290 10290 10304 10302 10289 10326 10350 10346 10334 10326 10367 10357 10357 10355 10356 10366 10400 10373 10376 10377 10375 10375 10375 10374 10375 10374 10371 10368 10366 10363 10361 10359 10352 10348 10346 10346 10343 10339 10334 10328 10323 10317 10308
10251 10261 10269 10281 10262 10272 10317 10322 10316 10297 10330 10331 10308 10306 10319 10337 10352 10362 10361 10347 10341 10342 10343 10342 10340 10337 10335 10333 10331 10327 10325 10323 10319 10317 10314 10310 10307 10304 10298 10296 10293 10285 10277 10270
10227 10232 10240 10250 10248 10256 10288 10295 10291 10283 10273 10277 10291 10295 10296 10304 10317 10323 10327 10327 10322 10317 10314 10309 10305 10302 10297 10294 10294 10294 10291 10288 10286 10286 10280 10275 10271 10267 10264 10259 10252 10243 10238 10233
10203 10213 10218 10216 10228 10239 10252 10260 10253 10252 10247 10261 10264 10268 10266 10270 10280 10284 10290 10291 10290 10288 10282 10277 10271 10263 10260 10261 10259 10256 10255 10256 10253 10249 10247 10242 10238 10232 10229 10223 10216 10210 10202 10197
10180 10191 10183 10193 10214 10214 10215 10222 10222 10223 10219 10224 10234 10241 10241 10240 10240 10245 10246 10247 10251 10250 10249 10240 10230 10222 10227 10228 10224 10222 10221 10221 10218 10213 10206 10202 10198 10194 10190 10184 10178 10170 10163 10157
10162 10163 10167 10172 10192 10185 10183 10182 10184 10186 10191 10198 10201 10206 10212 10211 10209 10205 10206 10205 10205 10204 10198 10189 10191 10192 10196 10196 10192 10190 10186 10181 10177 10171 10166 10160 10156 10151 10146 10140 10136 10129 10122 10115
10135 10142 10142 10152 10158 10149 10158 10157 10158 10162 10169 10170 10169 10172 10174 10177 10177 10172 10170 10160 10150 10149 10152 10154 10161 10163 10164 10160 10154 10151 10147 10142 10136 10130 10124 10119 10114 10109 10101 10100 10092 10088 10083 10074